Regional Weather Roundup
Issued by NWS

Home | Current Version | Previous Version | Graphics & Text | Print | Product List | Glossary On
Versions: 1 2 3 4 5 6 7 8 9 10 11 12 13 14 15 16 17 18 19 20 21 22 23 24 25 26 27 28 29 30 31 32 33 34 35 36 37 38 39 40 41 42 43 44 45 46 47 48 49 50
000
ASUS45 KBOU 101310
RWRCO

WEATHER ROUNDUP FOR COLORADO
NATIONAL WEATHER SERVICE DENVER/BOULDER CO
700 AM MDT THU JUL 10 2014

NOTE: "FAIR" INDICATES FEW OR NO CLOUDS BELOW 12000 FEET WITH NO
SIGNIFICANT WEATHER AND/OR OBSTRUCTIONS TO VISIBILITY.

COZ001>005-013-030-031-101400-
...NORTHWEST COLORADO...

CITY           SKY/WX    TMP DP  RH WIND       PRES   REMARKS
CRAIG          SUNNY     49  46  90 CALM      30.20S
HAYDEN         SUNNY     55  41  58 E8        30.22R
MEEKER         MOSUNNY   56  48  74 N3        30.22R
MOUNT WERNER   SUNNY     55  32  41 W7        30.50R
STEAMBOAT SPGS SUNNY     51  42  73 CALM      30.24S
WALDEN         SUNNY     50  41  71 SE5       30.29S
$$

COZ006>008-011-101400-
...WEST CENTRAL VALLEYS...

CITY           SKY/WX    TMP DP  RH WIND       PRES   REMARKS
GRAND JUNCTION MOSUNNY   69  47  45 CALM      30.11R
MONTROSE       MOSUNNY   66  47  50 E8        30.21R
EAGLE          SUNNY     54  45  71 CALM      30.27S
RIFLE          SUNNY     61  46  57 CALM      30.18R
DELTA          MOSUNNY   69  47  45 E3        30.17R
NUCLA          PTCLDY    63  48  59 E9        30.25S
$$

COZ017>023-064>068-101400-
...SOUTHWEST COLORADO...

CITY           SKY/WX    TMP DP  RH WIND       PRES   REMARKS
DURANGO        SUNNY     56  49  77 CALM      30.25S
CORTEZ         CLEAR     61  51  70 NE8       30.20F
PAGOSA SPRINGS SUNNY     53  50  90 CALM      30.32F
TELLURIDE      NOT AVBL
WOLF CREEK PAS NOT AVBL
$$

COZ009-010-012-014-032>034-037-058>063-101400-
...CENTRAL COLORADO...

CITY           SKY/WX    TMP DP  RH WIND       PRES   REMARKS
ASPEN          SUNNY     53  41  63 VRB5      30.32R
BUENA VISTA    SUNNY     53  39  59 SW3       30.32R
COPPER MTN     SUNNY     54  34  47 W16       30.60S
BERTHOUD PASS  FAIR      43  30  61 NW15G22   30.64R
COTTONWOOD PAS SUNNY     59  36  41 SE5       30.44R
GUNNISON       NOT AVBL
KREMMLING      SUNNY     50  41  71 CALM      30.32S
LEADVILLE      SUNNY     45  34  65 N3        30.44R
SALIDA         SUNNY     60  44  54 N6        30.35R
SUNLIGHT       SUNNY     52  41  66 CALM      30.53R
WILKERSON PASS SUNNY     52  34  50 NW9G18    30.55S
$$

COZ069>075-101400-
...SAN LUIS VALLEY/SANGRE DE CRISTO MOUNTAINS...

CITY           SKY/WX    TMP DP  RH WIND       PRES   REMARKS
ALAMOSA        SUNNY     51  44  77 CALM      30.31R
LA VETA PASS   SUNNY     46  43  87 SW8       30.44R
SAGUACHE       NOT AVBL
$$

COZ035-036-038>040-101400-
...NORTHERN COLORADO FRONT RANGE...

CITY           SKY/WX    TMP DP  RH WIND       PRES   REMARKS
DENVER INTL AP MOSUNNY   69  45  41 SW10      30.04R
DMNS CITY PARK   N/A     67  47  48 S7G14     30.05R
AURORA         MOSUNNY   65  47  51 S9        30.08R
FRONT RANGE AP NOT AVBL
ERIE MUNI ARPT SUNNY     62  54  76 W3        30.03R
BOULDER MUN AP SUNNY     66  46  48 N3        30.04R
CENTENNIAL     MOSUNNY   65  44  46 CALM      30.09R
BROOMFIELD     MOSUNNY   72  41  33 SW5       30.07R
FORT COLLINS   SUNNY     63  55  77 N6        30.04S
LONGMONT       SUNNY     65  53  64 CALM      30.04R
$$

COZ041-046-047-076>085-087-088-101400-
...PIKES PEAK/PALMER DIVIDE AND SOUTHERN FOOTHILLS...

CITY           SKY/WX    TMP DP  RH WIND       PRES   REMARKS
COLO. SPRINGS  MOSUNNY   66  48  52 N3        30.12R
A. F. ACADEMY  SUNNY     62  44  51 N8        30.15R
ELLICOTT       NOT AVBL
FALCON         SUNNY     69  42  36 NW13      30.17R
FORT CARSON    SUNNY     62  47  57 NW9       30.08R
LIMON          SUNNY     60  52  74 N3        30.06R
MONUMENT HILL  SUNNY     63  41  45 SW8       30.17R
TRINIDAD       SUNNY     65  47  52 W8        30.11R
$$

COZ042>045-048>051-090-091-101400-
...NORTHEAST COLORADO...

CITY           SKY/WX    TMP DP  RH WIND       PRES   REMARKS
GREELEY ARPT   NOT AVBL
AKRON          SUNNY     63  55  75 SE15      30.02S
BURLINGTON     CLOUDY    63  60  90 SE14      30.04R FOG
WRAY           CLOUDY    66  62  85 SE15G21   30.01S
STERLING       SUNNY     68  63  83 S8        30.00R
HOLYOKE        CLOUDY    66  61  82 S17       30.01S
FORT MORGAN    SUNNY     62  55  76 NE8       30.02R
$$

COZ086-089-092>099-101400-
...SOUTHEAST COLORADO...

CITY           SKY/WX    TMP DP  RH WIND       PRES   REMARKS
PUEBLO         SUNNY     63  52  67 W6        30.02R
LA JUNTA       SUNNY     66  50  56 NW5       29.99R
LAMAR          SUNNY     68  51  54 NE8       29.96R
SPRINGFIELD      N/A     67  54  63 S12       30.02R
$$


USA.gov is the U.S. government's official web portal to all federal, state and local government web resources and services.